Lid_Strength_Index
16 15 15 14 15 14 14 13 15 13 14 14 14 13 12 12 13 13 12 12 11 10 10 10 10 10 10 10 10 10 10 10 10 10 10 11 12 12 12 12 12 11 11 11
16 15 15 16 15 14 13 12 13 16 14 13 13 13 12 12 12 12 12 12 11 11 11 11 10 10 11 11 11 11 11 10 10 11 12 12 12 12 12 12 12 11 12 11
17 17 15 17 16 15 15 13 13 15 13 12 13 13 13 12 11 11 11 11 11 11 11 10 10 10 10 10 11 12 11 12 12 12 13 13 13 13 13 12 12 12 11 11
17 16 20 15 15 13 13 12 12 12 12 11 11 10 10 11 11 11 11 10 10 10 9 9 9 10 10 11 12 12 12 13 13 13 13 13 13 13 12 12 12 12 11 11
17 18 16 15 15 15 15 15 13 13 12 11 11 12 12 11 11 10 10 10 9 8 8 9 10 10 11 12 12 13 13 13 13 13 13 14 13 13 12 12 12 12 11 11
17 18 19 15 14 13 13 17 14 15 14 13 13 15 12 11 11 11 10 10 10 9 10 10 10 11 12 12 13 13 12 12 13 13 13 13 12 13 12 11 12 12 12 12
15 17 15 13 13 12 17 16 14 15 15 14 14 12 11 12 11 12 11 11 11 11 11 10 12 12 12 12 12 12 13 13 13 13 13 12 12 12 12 12 12 12 12 12
15 17 18 13 13 14 13 13 14 14 14 14 13 13 13 12 12 13 13 14 13 12 12 12 12 12 12 12 12 13 13 13 13 13 12 12 12 12 12 12 12 12 12 12
13 13 11 11 11 10 12 12 12 13 13 13 13 12 13 13 13 14 15 14 15 14 15 15 14 13 13 14 14 14 13 13 13 13 12 12 12 12 12 12 12 12 13 12
12 11 11 10 10 10 11 11 11 12 13 12 12 13 13 13 14 14 16 16 16 15 15 16 15 15 14 14 14 13 13 13 14 13 13 13 12 12 12 12 13 13 12 12
11 11 11 10 9 9 10 10 11 12 12 12 12 13 13 14 15 16 16 16 15 16 17 18 17 17 17 15 14 14 14 15 14 13 13 13 13 13 13 12 11 12 12 11
11 8 8 8 8 9 10 10 10 11 13 14 14 13 15 16 17 17 17 17 17 17 18 18 19 20 19 17 14 14 15 14 14 14 14 14 14 14 15 13 13 12 12 12
7 7 7 9 10 10 10 10 11 13 13 13 15 15 16 17 18 19 18 18 18 18 19 19 20 21 21 19 16 15 15 15 16 16 15 15 15 14 13 14 14 12 11 11
7 8 8 9 7 8 11 13 14 15 16 15 15 16 16 17 19 18 19 20 20 20 20 20 21 23 23 20 18 18 18 19 15 16 15 16 15 15 15 14 13 13 14 14
7 7 5 8 9 12 14 15 15 14 15 15 16 15 15 17 17 20 23 22 21 22 21 20 21 23 23 22 19 18 17 18 18 18 18 18 17 16 16 16 15 15 15 14
8 8 9 10 9 12 14 15 14 12 14 15 15 15 15 17 20 22 22 21 18 19 21 21 22 25 25 22 21 20 21 22 20 18 19 18 18 17 16 17 16 16 15 14
13 13 13 12 11 10 12 11 10 12 14 15 15 17 17 19 20 21 22 22 22 22 23 22 24 26 25 24 21 20 20 21 23 19 19 19 18 18 18 18 17 16 15 14
8 7 8 7 8 10 14 12 13 14 14 14 17 17 18 17 17 21 22 23 24 24 24 25 25 25 25 24 23 21 20 21 20 20 20 19 19 19 18 17 16 16 15 14
18 13 14 11 10 11 12 14 16 16 16 16 16 16 17 18 19 21 21 20 21 21 24 25 22 24 24 23 23 21 21 20 20 21 21 22 19 19 17 16 16 17 17 17
20 19 14 15 18 15 16 17 18 18 18 17 17 17 19 20 21 21 19 22 24 25 26 26 26 25 26 26 25 22 22 22 21 21 21 21 20 20 19 21 20 19 18 18
22 21 17 15 17 17 17 17 17 17 17 15 16 17 19 21 20 20 21 21 25 26 27 27 26 25 25 25 24 23 22 22 22 22 22 22 21 21 20 20 20 20 20 20
23 23 22 20 17 18 17 16 16 16 16 17 19 19 20 22 23 25 26 22 25 28 26 25 24 26 26 26 24 24 24 24 24 24 23 23 22 22 22 22 22 21 21 21
24 23 22 22 21 20 19 18 18 18 19 19 19 19 20 21 21 22 24 27 26 27 25 25 25 26 27 25 25 25 25 25 25 24 23 23 23 23 23 23 23 23 23 24
23 24 23 22 22 21 23 23 23 24 24 24 23 22 23 24 25 26 26 27 27 26 26 26 25 27 28 26 26 26 26 25 24 24 24 26 24 24 24 24 24 24 25 24
21 22 21 21 21 23 24 24 24 25 25 25 26 26 26 26 22 27 26 27 25 27 27 27 26 28 27 27 26 26 25 25 25 25 25 25 25 25 25 25 26 25 25 25
22 23 24 24 23 23 23 22 23 23 24 25 27 27 27 27 27 27 27 28 27 28 28 28 28 27 27 26 26 25 25 25 25 25 26 26 27 26 26 26 26 25 25 25
27 27 26 26 27 26 25 24 24 25 24 24 27 28 27 27 28 27 28 27 27 28 28 27 26 27 26 25 25 26 26 26 27 27 27 27 26 27 27 27 26 26 26 26